Location: Godzisko
(49.9648°N, 19.4576°E)
Time: 03:31:42
(UTC+00:00)

Cosmos 1354 Rocket - Pass Details

Date: 20 April 2021
Orbit: 764 x 783 km, 74.0° (Epoch: 15 May)

Event Time Altitude Azimuth Distance (km) Brightness Sun altitude
Exits shadow 00:10:15 49° 282° (WNW) 988 4.4 -25.5°
Maximum altitude 00:10:43 50° 300° (WNW) 970 4.5 -25.5°
Drops below altitude 10° 00:15:49 10° 16° (NNE) 2,314 7.5 -25.1°
Sets 00:18:17 0° 22° (NNE) 3,245 8.6 -24.9°
